RH
30 34 34 30 24 25 23 19 15 13 17 17 16 16 17 25 31 31 83 85 69 33 17 19 46 95 97 95 95 95 97 97 97 96 96 97 98 96
25 25 25 26 27 25 26 24 24 23 14 13 11 14 20 24 26 31 81 99 90 79 46 17 18 48 87 90 72 89 96 96 97 97 96 98 98 98
15 17 25 25 32 32 30 27 25 24 19 12 32 57 62 48 36 35 38 95 98 99 91 55 30 27 40 47 70 83 68 96 97 96 97 97 96 97
9 13 16 22 27 32 37 29 25 27 16 24 50 62 80 85 79 75 51 100 100 100 100 98 71 49 64 40 21 74 69 55 80 96 94 95 97 95
11 12 15 18 26 27 39 39 33 30 20 33 45 68 82 97 92 100 85 93 100 100 100 99 96 86 62 58 20 18 20 20 19 55 70 37 23 42
15 14 16 17 21 28 37 40 46 37 24 31 50 65 86 98 96 94 100 76 99 100 100 100 98 97 90 77 51 34 24 28 41 20 16 32 20 19
16 15 14 15 20 26 33 36 45 46 35 31 55 73 73 84 100 98 87 97 100 100 99 100 100 98 98 82 90 82 69 57 44 21 13 14 16 17
12 11 11 11 15 22 33 38 40 50 44 31 39 75 85 80 90 99 100 85 99 100 99 100 97 94 99 90 78 71 57 41 28 22 20 17 16 17
10 10 11 11 12 11 19 39 38 42 57 55 36 42 84 91 77 71 88 98 84 96 99 93 98 96 100 99 100 99 70 43 36 38 42 46 44 44
10 11 14 17 18 13 14 20 34 42 48 60 70 39 46 66 91 97 99 97 100 96 89 88 93 98 100 100 100 97 95 70 62 57 55 53 52 54
10 10 14 17 22 23 14 15 18 38 46 44 61 90 69 44 56 55 57 81 94 92 94 98 100 100 100 100 100 100 100 96 86 81 78 73 67 52
10 11 13 15 19 24 25 16 14 23 31 47 39 56 80 95 73 46 52 49 45 48 57 46 44 50 54 56 57 60 69 69 63 62 58 52 45 39
18 13 15 18 20 21 26 29 20 16 20 36 41 41 52 80 92 83 69 75 76 72 73 71 63 54 51 49 54 54 55 52 47 44 39 38 42 39
62 36 39 38 30 28 31 28 31 29 20 17 37 44 50 38 51 89 92 88 78 72 77 76 80 82 75 75 73 76 73 64 60 59 56 51 48 47
59 88 48 51 85 58 35 34 34 33 38 30 18 23 46 57 44 40 55 77 79 80 78 72 74 92 100 100 100 99 99 100 90 63 53 58 59 68
99 97 98 78 54 61 70 50 31 41 38 43 42 36 21 29 46 62 46 39 35 56 58 71 90 99 100 100 95 93 82 82 72 77 83 81 70 77
100 99 100 99 99 100 100 94 54 49 62 54 52 51 50 44 23 29 60 67 51 42 33 29 47 65 78 68 67 80 96 100 96 100 100 84 80 80
98 99 100 99 100 98 100 100 100 54 51 60 68 73 64 66 57 46 19 41 65 72 55 61 62 32 36 54 49 58 54 50 54 64 77 94 63 55
86 86 82 84 86 100 100 100 100 100 78 76 89 99 98 85 88 85 68 38 17 40 65 79 77 78 73 58 52 49 55 55 53 50 46 43 52 54
100 100 100 85 89 88 93 100 100 100 100 100 100 100 100 100 98 98 99 94 73 41 21 22 49 82 92 96 98 94 96 98 100 99 97 94 91 87
65 71 84 99 100 100 100 100 100 100 100 100 100 100 100 100 100 100 100 100 100 99 87 56 25 16 28 57 85 97 100 100 98 98 99 99 98 98
59 53 54 73 97 100 100 100 100 100 100 100 100 100 100 100 100 100 100 100 100 100 100 98 90 70 37 21 20 22 24 33 46 50 51 47 42 40
50 53 66 88 98 100 100 100 100 100 100 100 100 100 100 100 100 100 100 100 100 100 100 100 100 100 95 82 60 40 28 20 18 17 18 18 17 16
Wind_Speed
26 28 31 37 35 32 35 39 46 50 53 63 67 69 72 72 73 75 76 77 79 80 83 80 80 72 59 68 59 49 55 56 46 55 64 56 53 52
26 27 29 34 35 39 42 45 47 45 55 63 68 73 77 75 72 72 68 74 72 76 78 84 85 79 77 74 71 68 56 51 47 52 54 44 50 53
35 33 33 34 32 35 34 38 42 48 55 52 48 50 50 58 64 68 65 59 64 67 77 78 81 85 81 86 79 75 76 78 62 54 57 53 42 39
34 34 34 34 36 37 38 37 40 45 52 39 39 45 39 36 45 51 59 48 46 53 61 70 73 78 74 82 85 84 83 86 84 85 68 71 65 59
36 34 34 32 35 37 38 39 40 43 40 35 36 39 32 25 33 41 40 53 48 46 53 58 63 67 71 76 85 88 89 89 83 83 76 75 66 63
32 32 33 32 33 34 36 38 37 38 36 30 30 30 28 22 17 27 33 53 49 51 45 48 56 57 62 64 72 81 86 83 80 74 75 75 71 64
32 30 33 34 32 33 33 35 33 33 34 28 28 26 23 20 19 21 25 45 48 49 47 45 45 49 54 58 55 58 61 63 65 71 72 72 72 66
26 27 27 31 31 31 30 31 31 30 30 27 27 26 23 20 20 21 20 34 47 39 47 36 37 44 57 69 69 69 68 64 63 61 62 63 63 62
22 22 23 23 26 29 30 29 32 29 27 26 23 26 25 22 18 20 23 21 35 46 47 46 47 45 46 45 52 55 62 61 60 57 55 53 53 52
27 28 28 27 29 29 28 29 28 30 26 23 23 23 23 23 23 22 23 27 27 31 40 44 44 42 40 44 51 52 52 56 58 59 58 56 55 52
37 37 33 30 29 31 30 28 27 25 28 25 21 21 21 23 24 24 25 25 27 35 35 36 39 45 45 44 45 49 53 54 56 56 56 56 55 55
42 41 40 38 35 32 30 31 28 25 24 26 26 21 20 21 22 24 22 24 29 31 30 32 33 35 37 39 40 42 46 48 48 50 52 53 53 54
50 48 45 45 44 41 36 32 30 30 26 24 23 23 22 21 21 22 22 24 25 27 29 33 32 34 36 38 40 42 45 48 50 52 54 54 53 52
57 56 55 50 48 47 44 40 35 34 32 29 25 23 23 20 18 20 22 25 26 26 25 26 29 30 31 33 33 35 35 36 39 43 45 49 56 53
62 63 59 58 56 50 48 46 43 39 36 33 31 28 25 24 22 21 21 21 19 22 29 29 31 29 30 31 33 33 32 34 33 34 36 39 42 44
68 71 67 65 58 56 54 51 47 46 42 39 35 33 32 29 27 25 23 22 22 17 12 14 20 26 33 29 34 36 35 35 34 36 35 35 35 35
50 56 59 58 59 65 65 59 54 51 49 46 43 39 37 36 33 31 28 28 28 25 25 25 22 20 19 15 11 11 17 22 23 26 29 37 35 35
53 51 48 48 51 51 54 59 60 53 53 52 47 46 43 40 39 37 36 33 32 33 32 29 27 27 27 27 25 22 23 24 23 20 19 23 27 29
48 47 47 50 52 49 49 52 56 60 56 56 57 54 50 47 44 42 40 39 37 37 37 36 34 33 32 32 31 30 29 29 29 29 28 29 32 35
48 46 47 49 51 52 52 50 51 53 55 58 63 62 56 53 52 51 49 46 44 41 38 39 40 39 39 38 37 36 36 35 35 34 34 34 36 37
45 45 49 47 46 47 48 47 48 51 52 52 50 52 55 55 54 51 51 53 52 48 46 44 42 42 44 45 44 44 43 43 43 43 43 43 43 43
47 47 47 48 47 45 43 44 43 43 43 45 47 51 51 50 49 49 49 49 50 48 47 47 47 47 47 45 45 45 46 47 48 48 48 48 48 48
51 51 48 44 44 41 42 43 41 41 41 39 39 43 43 43 43 43 44 44 45 47 48 48 48 49 50 51 52 51 51 51 51 50 51 51 50 50
Wind_Direction
317 310 301 301 311 312 301 297 298 290 287 289 283 276 270 262 255 252 247 246 246 245 243 243 242 238 248 244 250 256 245 243 239 252 251 252 253 253
330 336 330 308 300 300 305 302 301 297 301 297 287 277 269 260 252 247 241 244 245 244 244 241 243 246 245 247 246 245 241 233 224 236 247 237 241 248
315 316 319 324 323 315 317 316 307 304 314 312 306 302 285 263 249 246 242 240 240 243 244 243 243 244 245 248 248 245 245 246 241 240 244 233 244 260
308 313 310 317 327 328 322 323 326 324 330 320 312 306 304 268 247 243 236 225 234 239 244 244 244 245 244 246 247 246 248 251 256 252 260 258 262 270
302 307 312 311 316 325 332 329 330 333 331 316 315 316 309 291 254 239 235 219 221 232 239 241 245 244 246 246 248 250 253 255 257 258 265 267 268 265
300 304 311 313 313 322 329 336 334 335 331 313 316 321 313 305 287 250 238 217 222 228 229 235 240 242 245 246 247 250 253 256 259 258 257 259 266 264
297 300 304 309 316 319 325 330 342 333 330 319 315 317 314 304 282 261 257 221 222 229 228 230 235 238 239 241 241 247 253 256 259 259 257 258 261 262
298 303 304 307 311 316 325 329 340 344 324 319 305 306 302 300 285 276 265 233 227 231 232 234 236 243 245 247 248 252 255 257 260 260 261 262 262 261
291 296 305 309 312 318 319 324 329 336 342 323 313 299 291 286 277 270 273 251 236 235 236 243 249 249 254 251 245 244 249 251 254 256 255 256 256 256
286 292 296 302 309 313 316 318 326 329 333 340 313 301 296 281 273 264 255 253 249 240 238 240 244 243 244 246 248 247 246 249 251 252 253 254 255 257
281 287 290 293 300 306 310 311 316 321 323 328 331 308 303 292 285 276 264 256 247 245 243 243 244 243 243 243 245 247 247 248 250 253 254 256 255 257
279 281 287 288 290 293 298 304 306 309 313 318 319 323 309 292 291 285 272 265 260 252 251 249 251 253 253 254 253 252 252 252 253 253 252 251 252 253
278 279 281 285 288 290 290 292 296 300 301 302 310 310 311 308 288 286 283 275 264 260 257 258 253 251 254 256 258 259 259 260 259 257 255 252 250 252
273 275 274 278 282 285 288 287 287 290 294 296 293 296 300 299 303 288 277 274 273 270 265 263 264 260 258 258 257 255 258 260 260 258 258 254 249 250
272 270 273 276 275 274 281 285 284 282 284 287 290 287 284 287 285 290 291 281 272 268 262 258 257 262 268 268 266 261 257 263 259 259 260 259 254 254
267 268 267 267 272 274 271 275 282 282 280 280 280 283 285 279 276 275 276 279 276 263 251 259 261 263 269 274 267 266 263 260 260 262 256 253 247 244
282 277 277 278 276 273 273 269 271 274 277 276 277 277 280 283 280 273 269 270 270 267 268 264 257 254 249 239 251 255 249 251 254 272 263 250 247 247
283 283 282 279 277 276 273 273 266 269 270 273 273 273 274 277 279 280 275 266 264 265 264 261 260 262 259 251 248 244 241 240 243 243 243 238 231 233
279 280 283 283 281 278 276 273 270 265 265 268 269 270 271 271 273 276 276 276 271 264 263 260 258 256 254 255 255 254 251 251 250 248 246 243 240 240
273 274 271 269 268 268 269 272 272 269 268 269 267 269 271 269 267 268 271 272 272 272 269 265 263 260 258 258 257 256 254 252 252 252 249 245 244 246
276 274 272 274 274 272 269 268 266 267 266 266 265 269 271 267 270 270 271 268 267 268 270 269 267 266 262 260 260 259 257 257 258 257 257 257 255 254
272 271 273 274 274 277 274 271 271 268 267 267 268 270 269 267 268 268 268 267 266 268 266 267 266 266 266 265 265 264 262 262 261 260 260 258 258 257
274 274 275 283 282 281 284 280 276 273 270 268 269 269 268 266 266 265 265 266 266 266 266 264 263 263 263 263 264 265 265 265 265 266 266 267 265 262